| time (UTC) | temp F | wind direction | speed MPH | gust MPH | rain 1hr in | rain 24hr in | rain mn in | humidity % | barometer mb |
| 20260506230028 | 52 | 294 | 0.0 | 0.0 | 0.00 | 0.00 | 0.00 | 92 | 1010.2 |
| 20260506225020 | 52 | 293 | 0.0 | 0.0 | 0.00 | 0.00 | 0.00 | 91 | 1010.1 |
| 20260506223544 | 52 | 293 | 0.0 | 0.0 | 0.00 | 0.00 | 0.00 | 91 | 1010.1 |
| 20260506223026 | 52 | 317 | 0.0 | 0.0 | 0.00 | 0.00 | 0.00 | 92 | 1010.1 |
| 20260506222538 | 51 | 40 | 0.0 | 0.0 | 0.00 | 0.00 | 0.00 | 93 | 1010.1 |
| 20260506221524 | 51 | 9 | 0.0 | 0.0 | 0.00 | 0.00 | 0.00 | 95 | 1010.1 |
| 20260506221033 | 51 | 12 | 0.0 | 0.0 | 0.00 | 0.00 | 0.00 | 95 | 1010.1 |
| 20260506220526 | 51 | 12 | 0.0 | 0.0 | 0.00 | 0.00 | 0.00 | 95 | 1010.1 |
| 20260506215538 | 51 | 12 | 0.0 | 0.0 | 0.00 | 0.00 | 1.50 | 95 | 1010.0 |
| 20260506215028 | 51 | 12 | 0.0 | 0.0 | 0.00 | 0.00 | 1.50 | 95 | 1010.0 |
| 20260506214535 | 51 | 12 | 0.0 | 0.0 | 0.00 | 0.00 | 1.50 | 95 | 1010.0 |
| 20260506214028 | 51 | 12 | 0.0 | 0.0 | 0.00 | 0.00 | 1.50 | 94 | 1010.0 |
| 20260506213521 | 51 | 12 | 0.0 | 0.0 | 0.00 | 0.00 | 1.50 | 94 | 1009.9 |
| 20260506213039 | 51 | 12 | 0.0 | 0.0 | 0.00 | 0.00 | 1.50 | 94 | 1009.9 |
| 20260506212523 | 51 | 12 | 0.0 | 0.0 | 0.00 | 0.00 | 1.50 | 93 | 1009.9 |
| 20260506212045 | 52 | 56 | 0.0 | 0.0 | 0.00 | 0.00 | 1.50 | 93 | 1010.0 |
| 20260506211025 | 52 | 56 | 0.0 | 0.0 | 0.00 | 0.00 | 1.50 | 93 | 1009.8 |
| 20260506210537 | 52 | 56 | 0.0 | 0.0 | 0.00 | 0.00 | 1.50 | 93 | 1009.8 |
| 20260506210043 | 52 | 56 | 0.0 | 0.0 | 0.00 | 0.00 | 1.50 | 92 | 1009.7 |
| 20260506205528 | 52 | 56 | 0.0 | 0.0 | 0.00 | 0.00 | 1.50 | 92 | 1009.7 |
| 20260506205033 | 52 | 56 | 0.0 | 0.0 | 0.00 | 0.00 | 1.50 | 92 | 1009.7 |
| 20260506204538 | 52 | 55 | 0.0 | 0.0 | 0.00 | 0.00 | 1.50 | 91 | 1009.7 |
| 20260506204038 | 52 | 302 | 0.0 | 0.0 | 0.00 | 0.00 | 1.50 | 93 | 1009.7 |
| 20260506203529 | 52 | 302 | 0.0 | 0.0 | 0.00 | 0.00 | 1.50 | 92 | 1009.7 |
| 20260506203028 | 52 | 302 | 0.0 | 0.0 | 0.00 | 0.00 | 1.50 | 93 | 1009.7 |
| 20260506202534 | 52 | 302 | 0.0 | 0.0 | 0.00 | 0.00 | 1.50 | 93 | 1009.6 |
| 20260506201526 | 52 | 302 | 0.0 | 0.0 | 0.00 | 0.00 | 1.50 | 91 | 1009.6 |
| 20260506201037 | 52 | 302 | 0.0 | 0.0 | 0.00 | 0.00 | 1.50 | 92 | 1009.6 |
| 20260506200528 | 52 | 302 | 0.0 | 0.0 | 0.00 | 0.00 | 1.50 | 92 | 1009.5 |
| 20260506200020 | 52 | 302 | 0.0 | 0.0 | 0.00 | 0.00 | 1.50 | 92 | 1009.5 |
| 20260506195028 | 53 | 296 | 0.0 | 0.0 | 0.00 | 0.00 | 1.50 | 91 | 1009.4 |
| 20260506194533 | 53 | 317 | 0.0 | 0.0 | 0.00 | 0.00 | 1.50 | 90 | 1009.5 |
| 20260506194041 | 53 | 5 | 0.0 | 0.0 | 0.00 | 0.00 | 1.50 | 89 | 1009.3 |
| 20260506193530 | 53 | 234 | 0.0 | 0.0 | 0.00 | 0.00 | 1.50 | 89 | 1008.9 |
| 20260506193022 | 53 | 180 | 0.0 | 0.0 | 0.00 | 0.00 | 1.50 | 89 | 1008.8 |
| 20260506192034 | 53 | 86 | 1.0 | 0.0 | 0.00 | 0.00 | 1.50 | 88 | 1008.7 |
| 20260506191530 | 53 | 42 | 1.0 | 0.0 | 0.00 | 0.00 | 1.50 | 88 | 1008.7 |
| 20260506191023 | 53 | 342 | 0.0 | 0.0 | 0.00 | 0.00 | 1.50 | 89 | 1008.9 |
| 20260506190527 | 53 | 307 | 1.0 | 0.0 | 0.00 | 0.00 | 1.50 | 89 | 1008.9 |
| 20260506190036 | 53 | 5 | 1.0 | 0.0 | 0.00 | 0.00 | 1.50 | 87 | 1008.9 |
| 20260506185538 | 53 | 333 | 1.0 | 0.0 | 0.00 | 0.00 | 1.50 | 88 | 1009.0 |
| 20260506185038 | 53 | 325 | 3.0 | 0.0 | 0.00 | 0.00 | 1.50 | 88 | 1009.0 |
| 20260506184535 | 54 | 324 | 5.0 | 0.0 | 0.00 | 0.00 | 1.50 | 90 | 1009.1 |
| 20260506183028 | 53 | 229 | 0.0 | 0.0 | 0.00 | 0.00 | 1.50 | 95 | 1008.4 |
| 20260506182551 | 53 | 228 | 0.0 | 0.0 | 0.00 | 0.00 | 1.50 | 95 | 1008.1 |
| 20260506182021 | 53 | 194 | 0.0 | 0.0 | 0.00 | 0.00 | 1.50 | 95 | 1008.1 |
| 20260506181529 | 53 | 51 | 0.0 | 0.0 | 0.00 | 0.00 | 1.50 | 95 | 1007.9 |
| 20260506181036 | 53 | 51 | 0.0 | 0.0 | 0.00 | 0.00 | 1.50 | 95 | 1007.9 |
| 20260506180524 | 53 | 51 | 0.0 | 0.0 | 0.00 | 0.00 | 1.50 | 95 | 1007.7 |
| 20260506180031 | 53 | 51 | 0.0 | 0.0 | 0.00 | 0.00 | 1.50 | 95 | 1007.7 |
| 20260506175521 | 53 | 51 | 0.0 | 0.0 | 0.00 | 0.00 | 1.50 | 96 | 1007.6 |
| 20260506175036 | 53 | 51 | 0.0 | 0.0 | 0.00 | 0.00 | 1.50 | 95 | 1007.5 |
| 20260506174533 | 54 | 51 | 0.0 | 0.0 | 0.00 | 0.00 | 1.50 | 95 | 1007.5 |
| 20260506174032 | 54 | 51 | 0.0 | 0.0 | 0.00 | 0.00 | 1.50 | 95 | 1007.4 |
| 20260506173532 | 54 | 51 | 0.0 | 0.0 | 0.00 | 0.00 | 1.50 | 95 | 1007.4 |
| 20260506172536 | 53 | 51 | 0.0 | 0.0 | 0.00 | 0.00 | 1.50 | 94 | 1007.3 |
| 20260506172024 | 54 | 316 | 0.0 | 0.0 | 0.00 | 0.00 | 1.50 | 94 | 1007.2 |
| 20260506171538 | 54 | 316 | 0.0 | 0.0 | 0.00 | 0.00 | 1.50 | 93 | 1007.2 |
| 20260506171024 | 54 | 80 | 0.0 | 0.0 | 0.00 | 0.00 | 1.50 | 93 | 1007.2 |
| 20260506170534 | 54 | 80 | 0.0 | 0.0 | 0.00 | 0.00 | 1.50 | 92 | 1007.1 |
| 20260506170024 | 55 | 80 | 0.0 | 0.0 | 0.00 | 0.00 | 1.50 | 92 | 1007.1 |
| 20260506165531 | 55 | 80 | 0.0 | 0.0 | 0.00 | 0.00 | 1.50 | 91 | 1007.0 |
| 20260506164523 | 56 | 9 | 0.0 | 0.0 | 0.00 | 0.00 | 1.50 | 90 | 1007.1 |
| 20260506164029 | 56 | 9 | 0.0 | 0.0 | 0.00 | 0.00 | 1.50 | 89 | 1007.1 |
| 20260506163529 | 57 | 9 | 0.0 | 0.0 | 0.00 | 0.00 | 1.50 | 90 | 1007.0 |
| 20260506162526 | 57 | 130 | 1.0 | 0.0 | 0.00 | 0.00 | 1.50 | 91 | 1006.9 |
| 20260506162056 | 56 | 132 | 1.0 | 0.0 | 0.00 | 0.00 | 1.50 | 92 | 1006.7 |
| 20260506161523 | 55 | 115 | 1.0 | 0.0 | 0.00 | 0.00 | 1.50 | 91 | 1006.5 |
| 20260506160539 | 54 | 331 | 3.0 | 0.0 | 0.00 | 0.00 | 1.50 | 92 | 1006.2 |
| 20260506160022 | 54 | 88 | 2.0 | 0.0 | 0.00 | 0.00 | 1.50 | 92 | 1006.2 |
| 20260506155035 | 53 | 92 | 1.0 | 0.0 | 0.00 | 0.00 | 1.50 | 93 | 1006.2 |
| 20260506154033 | 52 | 315 | 2.0 | 0.0 | 0.00 | 0.00 | 1.50 | 94 | 1006.1 |
| 20260506153536 | 51 | 11 | 1.0 | 0.0 | 0.00 | 0.00 | 1.50 | 94 | 1006.1 |
| 20260506152520 | 51 | 296 | 2.0 | 0.0 | 0.00 | 0.00 | 1.42 | 91 | 1006.4 |
| 20260506152023 | 52 | 49 | 5.0 | 0.0 | 0.00 | 0.00 | 1.30 | 89 | 1006.9 |
| 20260506151527 | 53 | 343 | 8.0 | 0.0 | 0.00 | 0.00 | 1.01 | 90 | 1007.0 |
| 20260506151032 | 54 | 15 | 8.0 | 0.0 | 0.00 | 0.00 | 0.91 | 89 | 1006.7 |
| 20260506150536 | 56 | 313 | 5.0 | 0.0 | 0.00 | 0.00 | 0.84 | 88 | 1006.7 |
| 20260506145534 | 59 | 287 | 3.0 | 0.0 | 0.00 | 0.00 | 0.68 | 84 | 1006.9 |
| 20260506145027 | 61 | 308 | 4.0 | 0.0 | 0.00 | 0.00 | 0.62 | 80 | 1006.7 |
| 20260506144027 | 63 | 107 | 4.0 | 0.0 | 0.00 | 0.00 | 0.61 | 82 | 1006.0 |
| 20260506143534 | 63 | 85 | 3.0 | 0.0 | 0.00 | 0.00 | 0.61 | 82 | 1005.6 |
| 20260506143022 | 63 | 96 | 2.0 | 0.0 | 0.00 | 0.00 | 0.61 | 83 | 1005.9 |
| 20260506142535 | 63 | 202 | 1.0 | 0.0 | 0.00 | 0.00 | 0.61 | 82 | 1006.1 |
| 20260506142028 | 64 | 207 | 1.0 | 0.0 | 0.00 | 0.00 | 0.61 | 81 | 1006.2 |
| 20260506141519 | 64 | 115 | 3.0 | 0.0 | 0.00 | 0.00 | 0.61 | 80 | 1005.9 |
| 20260506141032 | 65 | 138 | 4.0 | 0.0 | 0.00 | 0.00 | 0.61 | 79 | 1005.9 |
| 20260506140026 | 63 | 94 | 4.0 | 0.0 | 0.00 | 0.00 | 0.61 | 83 | 1006.3 |
| 20260506135534 | 63 | 92 | 4.0 | 0.0 | 0.00 | 0.00 | 0.61 | 83 | 1006.3 |
| 20260506135025 | 63 | 80 | 4.0 | 0.0 | 0.00 | 0.00 | 0.61 | 84 | 1006.3 |
| 20260506134528 | 62 | 112 | 4.0 | 0.0 | 0.00 | 0.00 | 0.61 | 85 | 1006.6 |
| 20260506134034 | 62 | 115 | 5.0 | 0.0 | 0.00 | 0.00 | 0.61 | 84 | 1006.6 |
| 20260506133035 | 64 | 105 | 4.0 | 0.0 | 0.00 | 0.00 | 0.61 | 83 | 1006.9 |
| 20260506131536 | 64 | 92 | 4.0 | 0.0 | 0.00 | 0.00 | 0.61 | 84 | 1007.0 |
| 20260506131032 | 63 | 66 | 5.0 | 0.0 | 0.00 | 0.00 | 0.61 | 85 | 1007.2 |
| 20260506130535 | 63 | 64 | 5.0 | 0.0 | 0.00 | 0.00 | 0.61 | 86 | 1007.2 |
| 20260506130024 | 62 | 81 | 5.0 | 0.0 | 0.00 | 0.00 | 0.61 | 88 | 1007.2 |
| 20260506125527 | 62 | 74 | 5.0 | 0.0 | 0.00 | 0.00 | 0.61 | 86 | 1007.1 |
| 20260506125035 | 62 | 61 | 5.0 | 0.0 | 0.00 | 0.00 | 0.61 | 88 | 1007.2 |
| 20260506124521 | 61 | 96 | 5.0 | 0.0 | 0.00 | 0.00 | 0.61 | 88 | 1007.2 |
| 20260506124022 | 61 | 94 | 4.0 | 0.0 | 0.00 | 0.00 | 0.61 | 91 | 1007.3 |
| 20260506123529 | 61 | 49 | 3.0 | 0.0 | 0.00 | 0.00 | 0.61 | 92 | 1007.2 |
| 20260506123038 | 60 | 67 | 3.0 | 0.0 | 0.00 | 0.00 | 0.61 | 96 | 1007.2 |
| 20260506122524 | 59 | 192 | 4.0 | 0.0 | 0.00 | 0.00 | 0.61 | 95 | 1007.2 |
| 20260506122031 | 58 | 87 | 4.0 | 0.0 | 0.00 | 0.00 | 0.61 | 94 | 1007.2 |
| 20260506121054 | 58 | 79 | 4.0 | 0.0 | 0.00 | 0.00 | 0.61 | 93 | 1007.3 |
| 20260506120536 | 58 | 84 | 4.0 | 0.0 | 0.00 | 0.00 | 0.61 | 92 | 1007.5 |
| 20260506120030 | 59 | 119 | 4.0 | 0.0 | 0.00 | 0.00 | 0.58 | 92 | 1007.6 |
| 20260506115533 | 59 | 83 | 5.0 | 0.0 | 0.00 | 0.00 | 0.58 | 90 | 1007.7 |
| 20260506115019 | 60 | 111 | 5.0 | 0.0 | 0.00 | 0.00 | 0.56 | 88 | 1007.3 |
| 20260506114527 | 61 | 83 | 5.0 | 0.0 | 0.00 | 0.00 | 0.56 | 85 | 1007.4 |
| 20260506114031 | 61 | 83 | 5.0 | 0.0 | 0.00 | 0.00 | 0.56 | 86 | 1007.5 |
| 20260506113521 | 61 | 160 | 4.0 | 0.0 | 0.00 | 0.00 | 0.56 | 88 | 1007.6 |
| 20260506113027 | 60 | 97 | 4.0 | 0.0 | 0.00 | 0.00 | 0.56 | 89 | 1007.6 |
| 20260506112022 | 59 | 194 | 5.0 | 0.0 | 0.00 | 0.00 | 0.56 | 90 | 1007.7 |
| 20260506111027 | 59 | 88 | 6.0 | 0.0 | 0.00 | 0.00 | 0.56 | 89 | 1007.1 |
| 20260506110541 | 59 | 94 | 6.0 | 0.0 | 0.00 | 0.00 | 0.56 | 88 | 1007.5 |
| 20260506110022 | 59 | 94 | 5.0 | 0.0 | 0.00 | 0.00 | 0.56 | 87 | 1007.6 |
| 20260506105526 | 60 | 73 | 5.0 | 0.0 | 0.00 | 0.00 | 0.56 | 87 | 1007.7 |
| 20260506105027 | 60 | 81 | 6.0 | 0.0 | 0.00 | 0.00 | 0.56 | 86 | 1007.8 |
| 20260506104029 | 60 | 110 | 7.0 | 0.0 | 0.00 | 0.00 | 0.56 | 86 | 1007.9 |
| 20260506103534 | 61 | 88 | 6.0 | 0.0 | 0.00 | 0.00 | 0.56 | 86 | 1007.9 |
| 20260506101524 | 60 | 144 | 4.0 | 0.0 | 0.00 | 0.00 | 0.56 | 88 | 1008.1 |
| 20260506100032 | 59 | 83 | 5.0 | 0.0 | 0.00 | 0.00 | 0.56 | 89 | 1008.0 |
| 20260506095526 | 59 | 189 | 4.0 | 0.0 | 0.00 | 0.00 | 0.55 | 92 | 1008.0 |
| 20260506095022 | 58 | 96 | 4.0 | 0.0 | 0.00 | 0.00 | 0.55 | 92 | 1008.0 |
| 20260506094526 | 57 | 110 | 3.0 | 0.0 | 0.00 | 0.00 | 0.55 | 94 | 1008.0 |
| 20260506094030 | 56 | 130 | 4.0 | 0.0 | 0.00 | 0.00 | 0.55 | 94 | 1007.8 |
| 20260506093531 | 56 | 78 | 5.0 | 0.0 | 0.00 | 0.00 | 0.55 | 93 | 1007.8 |
| 20260506093035 | 56 | 54 | 4.0 | 0.0 | 0.00 | 0.00 | 0.55 | 94 | 1007.9 |
| 20260506092540 | 56 | 51 | 3.0 | 0.0 | 0.00 | 0.00 | 0.55 | 95 | 1007.7 |
| 20260506091532 | 55 | 101 | 2.0 | 0.0 | 0.00 | 0.00 | 0.55 | 96 | 1008.0 |
| 20260506091029 | 55 | 73 | 1.0 | 0.0 | 0.00 | 0.00 | 0.55 | 96 | 1007.9 |
| 20260506085524 | 55 | 130 | 1.0 | 0.0 | 0.00 | 0.00 | 0.50 | 96 | 1008.1 |
| 20260506084023 | 55 | 198 | 1.0 | 0.0 | 0.00 | 0.00 | 0.42 | 95 | 1008.0 |
| 20260506083530 | 56 | 93 | 2.0 | 0.0 | 0.00 | 0.00 | 0.38 | 95 | 1008.0 |
| 20260506083019 | 56 | 155 | 2.0 | 0.0 | 0.00 | 0.00 | 0.32 | 95 | 1008.0 |
| 20260506082027 | 56 | 106 | 5.0 | 0.0 | 0.00 | 0.00 | 0.28 | 93 | 1007.8 |
| 20260506081529 | 56 | 81 | 3.0 | 0.0 | 0.00 | 0.00 | 0.28 | 94 | 1007.5 |
| 20260506080529 | 56 | 96 | 4.0 | 0.0 | 0.00 | 0.00 | 0.28 | 95 | 1007.5 |
| 20260506073025 | 56 | 88 | 5.0 | 0.0 | 0.00 | 0.00 | 0.28 | 96 | 1008.0 |
| 20260506072536 | 56 | 79 | 5.0 | 0.0 | 0.00 | 0.00 | 0.28 | 96 | 1008.0 |
| 20260506072027 | 55 | 96 | 5.0 | 0.0 | 0.00 | 0.00 | 0.28 | 97 | 1007.9 |
| 20260506071520 | 55 | 84 | 5.0 | 0.0 | 0.00 | 0.00 | 0.27 | 96 | 1008.0 |
| 20260506071111 | 55 | 76 | 5.0 | 0.0 | 0.00 | 0.00 | 0.27 | 96 | 1008.2 |
| 20260506070532 | 55 | 101 | 4.0 | 0.0 | 0.00 | 0.00 | 0.27 | 96 | 1008.2 |
| 20260506062022 | 56 | 85 | 1.0 | 0.0 | 0.00 | 0.00 | 0.00 | 97 | 1008.2 |
| 20260506061528 | 56 | 96 | 2.0 | 0.0 | 0.00 | 0.00 | 0.00 | 97 | 1008.2 |
| 20260506060534 | 56 | 82 | 2.0 | 0.0 | 0.00 | 0.00 | 0.00 | 97 | 1008.2 |
| 20260506051038 | 55 | 80 | 2.0 | 0.0 | 0.00 | 0.00 | 0.00 | 97 | 1008.5 |
| 20260506050525 | 55 | 94 | 1.0 | 0.0 | 0.00 | 0.00 | 0.00 | 97 | 1008.6 |
| 20260506045033 | 55 | 142 | 1.0 | 0.0 | 0.00 | 0.00 | 0.00 | 97 | 1008.8 |
| 20260506044538 | 55 | 186 | 1.0 | 0.0 | 0.00 | 0.00 | 0.00 | 97 | 1008.8 |
| 20260506043535 | 55 | 104 | 1.0 | 0.0 | 0.00 | 0.00 | 0.00 | 97 | 1008.7 |
| 20260506043021 | 55 | 152 | 1.0 | 0.0 | 0.00 | 0.00 | 0.00 | 97 | 1008.8 |
| 20260506042536 | 55 | 128 | 1.0 | 0.0 | 0.00 | 0.00 | 0.00 | 97 | 1008.9 |
| 20260506041544 | 55 | 89 | 0.0 | 0.0 | 0.00 | 0.00 | 0.00 | 97 | 1008.9 |
| 20260506041033 | 55 | 82 | 0.0 | 0.0 | 0.00 | 0.00 | 0.00 | 97 | 1008.9 |
| 20260506040538 | 55 | 113 | 0.0 | 0.0 | 0.00 | 0.00 | 0.00 | 97 | 1009.0 |
| 20260506035531 | 55 | 111 | 0.0 | 0.0 | 0.00 | 0.00 | 0.00 | 97 | 1008.9 |
| 20260506035029 | 55 | 109 | 0.0 | 0.0 | 0.00 | 0.00 | 0.00 | 97 | 1008.9 |
| 20260506034537 | 55 | 88 | 0.0 | 0.0 | 0.00 | 0.00 | 0.00 | 97 | 1008.9 |
| 20260506033530 | 55 | 98 | 1.0 | 0.0 | 0.00 | 0.00 | 0.00 | 97 | 1008.8 |
| 20260506032606 | 55 | 88 | 2.0 | 0.0 | 0.00 | 0.00 | 0.00 | 97 | 1008.8 |
| 20260506032023 | 55 | 108 | 1.0 | 0.0 | 0.00 | 0.00 | 0.00 | 97 | 1008.8 |
| 20260506031018 | 55 | 105 | 1.0 | 0.0 | 0.00 | 0.00 | 0.00 | 97 | 1009.3 |
| 20260506030053 | 55 | 103 | 1.0 | 0.0 | 0.00 | 0.00 | 0.00 | 97 | 1009.4 |
| 20260506024528 | 55 | 103 | 1.0 | 0.0 | 0.00 | 0.00 | 0.00 | 97 | 1009.4 |
| 20260506024031 | 55 | 100 | 0.0 | 0.0 | 0.00 | 0.00 | 0.00 | 97 | 1009.5 |
| 20260506023525 | 55 | 84 | 0.0 | 0.0 | 0.00 | 0.00 | 0.00 | 97 | 1009.5 |
| 20260506023037 | 55 | 84 | 1.0 | 0.0 | 0.00 | 0.00 | 0.00 | 97 | 1009.7 |
| 20260506022524 | 55 | 90 | 1.0 | 0.0 | 0.00 | 0.00 | 0.00 | 97 | 1009.9 |
| 20260506021538 | 55 | 75 | 0.0 | 0.0 | 0.00 | 0.00 | 0.00 | 97 | 1009.8 |
| 20260506021026 | 55 | 75 | 0.0 | 0.0 | 0.00 | 0.00 | 0.00 | 97 | 1009.9 |
| 20260506020538 | 55 | 88 | 0.0 | 0.0 | 0.00 | 0.00 | 0.00 | 97 | 1010.1 |
| 20260506020025 | 55 | 86 | 0.0 | 0.0 | 0.00 | 0.00 | 0.00 | 97 | 1010.0 |
| 20260506015036 | 55 | 86 | 0.0 | 0.0 | 0.00 | 0.00 | 0.00 | 97 | 1009.9 |
| 20260506014527 | 55 | 86 | 0.0 | 0.0 | 0.00 | 0.00 | 0.00 | 97 | 1009.9 |
| 20260506014036 | 55 | 86 | 0.0 | 0.0 | 0.00 | 0.00 | 0.00 | 97 | 1009.9 |
| 20260506013531 | 55 | 86 | 0.0 | 0.0 | 0.00 | 0.00 | 0.00 | 97 | 1010.0 |
| 20260506013033 | 55 | 86 | 0.0 | 0.0 | 0.00 | 0.00 | 0.00 | 97 | 1009.9 |
| 20260506012522 | 55 | 86 | 0.0 | 0.0 | 0.00 | 0.00 | 0.00 | 97 | 1010.0 |
| 20260506012052 | 55 | 86 | 0.0 | 0.0 | 0.00 | 0.00 | 0.00 | 97 | 1010.1 |
| 20260506011528 | 55 | 86 | 0.0 | 0.0 | 0.00 | 0.00 | 0.00 | 97 | 1010.0 |
| 20260506011029 | 55 | 86 | 0.0 | 0.0 | 0.00 | 0.00 | 0.00 | 97 | 1010.0 |
| 20260506010539 | 55 | 86 | 0.0 | 0.0 | 0.00 | 0.00 | 0.00 | 97 | 1010.2 |
| 20260506010027 | 55 | 86 | 0.0 | 0.0 | 0.00 | 0.00 | 0.00 | 97 | 1010.1 |
| 20260506005534 | 55 | 86 | 0.0 | 0.0 | 0.00 | 0.00 | 0.00 | 97 | 1010.2 |
| 20260506005028 | 55 | 86 | 0.0 | 0.0 | 0.00 | 0.00 | 0.00 | 97 | 1010.2 |
| 20260506004535 | 55 | 75 | 0.0 | 0.0 | 0.00 | 0.00 | 0.00 | 97 | 1010.2 |
| 20260506004035 | 55 | 104 | 0.0 | 0.0 | 0.00 | 0.00 | 0.00 | 97 | 1010.5 |
| 20260506003034 | 55 | 86 | 0.0 | 0.0 | 0.00 | 0.00 | 0.00 | 97 | 1010.6 |
| 20260506002528 | 55 | 86 | 0.0 | 0.0 | 0.00 | 0.00 | 0.00 | 97 | 1010.7 |
| 20260506002030 | 55 | 86 | 0.0 | 0.0 | 0.00 | 0.00 | 0.00 | 97 | 1010.7 |
| 20260506001520 | 55 | 86 | 0.0 | 0.0 | 0.00 | 0.00 | 0.00 | 97 | 1010.7 |
| 20260506000601 | 55 | 86 | 0.0 | 0.0 | 0.00 | 0.00 | 0.00 | 97 | 1010.7 |
| 20260506000019 | 55 | 86 | 0.0 | 0.0 | 0.00 | 0.00 | 0.00 | 97 | 1010.7 |
| 20260505235521 | 55 | 86 | 0.0 | 0.0 | 0.00 | 0.00 | 0.00 | 97 | 1010.8 |
| 20260505234526 | 55 | 86 | 0.0 | 0.0 | 0.00 | 0.00 | 0.00 | 97 | 1011.0 |
| 20260505234056 | 55 | 86 | 0.0 | 0.0 | 0.00 | 0.00 | 0.00 | 97 | 1011.1 |
| 20260505233531 | 55 | 86 | 0.0 | 0.0 | 0.00 | 0.00 | 0.00 | 97 | 1011.0 |
| 20260505232539 | 55 | 86 | 0.0 | 0.0 | 0.00 | 0.00 | 0.00 | 97 | 1010.9 |
| 20260505231534 | 55 | 86 | 0.0 | 0.0 | 0.00 | 0.00 | 0.00 | 97 | 1011.1 |
| 20260505231030 | 55 | 86 | 0.0 | 0.0 | 0.00 | 0.00 | 0.00 | 97 | 1011.2 |
| 20260505230520 | 55 | 86 | 0.0 | 0.0 | 0.00 | 0.00 | 0.00 | 97 | 1011.2 |